TimeCDT,TemperatureF,Dew PointF,Humidity,Sea Level PressureIn,VisibilityMPH,Wind Direction,Wind SpeedMPH,Gust SpeedMPH,PrecipitationIn,Events,Conditions,WindDirDegrees,DateUTC
12:07 AM,71.6,64.4,78,29.65,10.0,South,16.1,23.0,0.00,Rain-Thunderstorm,Light Rain,180,2013-04-18 05:07:00
12:37 AM,71.6,64.4,78,29.62,9.0,SSE,15.0,-,0.03,Rain,Light Rain,160,2013-04-18 05:37:00
12:53 AM,71.1,64.9,81,29.56,10.0,South,15.0,21.9,0.03,Thunderstorm,Overcast,170,2013-04-18 05:53:00
1:07 AM,71.6,66.2,83,29.60,10.0,SSE,16.1,-,N/A,,Mostly Cloudy,160,2013-04-18 06:07:00
1:46 AM,71.6,66.2,83,29.57,10.0,South,17.3,-,N/A,Thunderstorm,Overcast,170,2013-04-18 06:46:00
1:53 AM,72.0,66.0,81,29.52,10.0,SSE,19.6,-,N/A,Thunderstorm,Overcast,160,2013-04-18 06:53:00
2:01 AM,73.4,66.2,78,29.57,10.0,South,21.9,27.6,N/A,,Overcast,170,2013-04-18 07:01:00
2:25 AM,73.4,66.2,78,29.58,10.0,South,18.4,26.5,N/A,Thunderstorm,Thunderstorm,190,2013-04-18 07:25:00
2:53 AM,64.9,61.0,87,29.59,9.0,WNW,19.6,32.2,N/A,Thunderstorm,Overcast,300,2013-04-18 07:53:00
2:59 AM,62.6,62.6,100,29.61,2.5,NW,12.7,32.2,0.09,Rain-Thunderstorm,Heavy Thunderstorms and Rain,320,2013-04-18 07:59:00
3:12 AM,62.6,62.6,100,29.62,2.5,Variable,3.5,-,0.25,Rain-Thunderstorm,Heavy Thunderstorms and Rain,0,2013-04-18 08:12:00
3:21 AM,62.6,-9999,N/A,29.60,1.0,WNW,12.7,-,0.55,Rain-Thunderstorm,Heavy Thunderstorms and Rain,300,2013-04-18 08:21:00
3:34 AM,60.8,-9999,N/A,29.61,0.8,Variable,3.5,-,1.03,Rain-Thunderstorm,Heavy Thunderstorms and Rain,0,2013-04-18 08:34:00
3:46 AM,60.8,-9999,N/A,29.58,1.0,East,9.2,-,1.39,Rain-Thunderstorm,Heavy Thunderstorms and Rain,100,2013-04-18 08:46:00
3:51 AM,60.8,-9999,N/A,29.58,3.0,East,5.8,-,1.41,Rain-Thunderstorm,Thunderstorms and Rain,80,2013-04-18 08:51:00
3:53 AM,61.0,-9999,N/A,29.54,4.0,ENE,4.6,-,1.42,Rain-Thunderstorm,Thunderstorms and Rain,70,2013-04-18 08:53:00
4:05 AM,60.8,-9999,N/A,29.59,8.0,ESE,5.8,-,0.03,Rain-Thunderstorm,Light Thunderstorms and Rain,120,2013-04-18 09:05:00
4:33 AM,60.8,-9999,N/A,29.60,10.0,Variable,3.5,-,0.05,Rain-Thunderstorm,Light Thunderstorms and Rain,0,2013-04-18 09:33:00
4:42 AM,60.8,-9999,N/A,29.61,5.0,NNW,5.8,18.4,0.10,Rain-Thunderstorm,Heavy Thunderstorms and Rain,330,2013-04-18 09:42:00
4:53 AM,61.0,-9999,N/A,29.57,4.0,NNW,13.8,-,0.16,Rain-Thunderstorm,Heavy Thunderstorms and Rain,330,2013-04-18 09:53:00
4:59 AM,60.8,-9999,N/A,29.61,1.8,NNW,9.2,-,0.17,Rain-Thunderstorm,Heavy Thunderstorms and Rain,330,2013-04-18 09:59:00
5:30 AM,62.6,-9999,N/A,29.58,1.0,South,5.8,-,0.72,Rain-Thunderstorm,Heavy Thunderstorms and Rain,170,2013-04-18 10:30:00
5:53 AM,62.1,-9999,N/A,29.55,2.5,SW,4.6,-,1.04,Rain-Thunderstorm,Heavy Rain,220,2013-04-18 10:53:00
5:58 AM,62.6,-9999,N/A,29.59,5.0,SW,4.6,-,0.00,Rain,Light Rain,220,2013-04-18 10:58:00
6:03 AM,62.6,-9999,N/A,29.59,8.0,SSW,5.8,-,0.01,Rain,Rain,210,2013-04-18 11:03:00
6:16 AM,62.6,-9999,N/A,29.59,10.0,SSW,5.8,-,0.02,Rain,Light Rain,210,2013-04-18 11:16:00
6:53 AM,57.9,57.9,100,29.63,10.0,West,24.2,33.4,0.05,Rain,Light Rain,260,2013-04-18 11:53:00
7:08 AM,53.6,53.6,100,29.65,9.0,West,6.9,24.2,0.02,Rain,Light Rain,270,2013-04-18 12:08:00
7:31 AM,53.6,53.6,100,29.67,10.0,West,11.5,-,0.02,Rain,Light Rain,270,2013-04-18 12:31:00
7:53 AM,52.0,52.0,100,29.66,10.0,WSW,16.1,-,0.02,Rain,Light Rain,250,2013-04-18 12:53:00
8:53 AM,46.9,46.9,100,29.72,6.0,West,17.3,26.5,0.03,Rain,Light Rain,280,2013-04-18 13:53:00
9:20 AM,46.4,46.4,100,29.75,7.0,WNW,16.1,23.0,0.05,Rain,Light Rain,290,2013-04-18 14:20:00
9:30 AM,44.6,44.6,100,29.76,10.0,WNW,12.7,-,0.05,Rain,Light Rain,300,2013-04-18 14:30:00
9:53 AM,44.1,44.1,100,29.75,5.0,West,16.1,25.3,0.06,Rain,Light Rain,280,2013-04-18 14:53:00
10:53 AM,41.0,41.0,100,29.80,8.0,WNW,18.4,25.3,0.00,Rain,Light Rain,290,2013-04-18 15:53:00
11:53 AM,39.9,39.9,100,29.80,10.0,WNW,15.0,26.5,0.02,,Overcast,290,2013-04-18 16:53:00
12:53 PM,39.0,39.0,100,29.80,10.0,WNW,15.0,-,N/A,,Overcast,300,2013-04-18 17:53:00
1:53 PM,39.9,39.9,100,29.82,10.0,WNW,17.3,23.0,N/A,,Overcast,300,2013-04-18 18:53:00
2:49 PM,41.0,39.2,93,29.86,10.0,WNW,17.3,24.2,N/A,,Overcast,300,2013-04-18 19:49:00
2:53 PM,41.0,37.9,89,29.85,10.0,WNW,13.8,24.2,N/A,,Overcast,300,2013-04-18 19:53:00
3:53 PM,42.1,37.0,82,29.88,10.0,NW,13.8,23.0,N/A,,Overcast,310,2013-04-18 20:53:00
4:53 PM,41.0,35.1,79,29.89,10.0,WNW,16.1,23.0,N/A,,Overcast,300,2013-04-18 21:53:00
5:53 PM,39.9,35.1,83,29.91,10.0,WNW,12.7,24.2,N/A,,Overcast,300,2013-04-18 22:53:00
6:24 PM,41.0,35.6,81,29.91,10.0,NW,16.1,21.9,N/A,,Overcast,320,2013-04-18 23:24:00
6:53 PM,39.9,35.1,83,29.92,10.0,NW,12.7,-,N/A,,Overcast,310,2013-04-18 23:53:00
7:53 PM,39.9,36.0,86,29.94,10.0,WNW,9.2,-,N/A,,Overcast,300,2013-04-19 00:53:00
8:53 PM,39.9,33.1,77,29.97,10.0,NW,18.4,26.5,N/A,,Overcast,310,2013-04-19 01:53:00
9:53 PM,39.0,32.0,76,30.00,10.0,NW,11.5,-,N/A,,Overcast,310,2013-04-19 02:53:00
10:53 PM,37.9,30.9,76,30.01,10.0,WNW,11.5,23.0,N/A,,Overcast,300,2013-04-19 03:53:00
11:53 PM,37.0,28.9,73,30.02,10.0,WNW,15.0,26.5,N/A,,Overcast,300,2013-04-19 04:53:00